顯示廣告
隱藏 ✕
※ 本文轉寄自 ptt.cc 更新時間: 2026-05-08 15:48:48
看板 Baseball
作者 samyou (project)
標題 [分享] 今日林維恩 6局10K
時間 Fri May  8 10:34:24 2026


IP NP        H HR SO BB R ER  ERA WHIP
 6 79(57-22) 4  0 10  0 2  2 1.85 0.91

今天在2A先發面對San Antonio Missions(教士2A)

本場在第三局時遭遇亂流

開局接連被打一壘安打及二壘安打

後續因滾地球及高飛犧牲打各失一分

其他局皆未失分

其中1、2、4、5局三上三下

好球率來到72%

沒有送出任何保送

且飆出10次三振

終場所屬Midland RockHounds以6:2贏球


Season Team Level   IP  ERA WHIP   K/9
  2025  STK     A 50.0 3.96 1.10 12.42
        LAN    A+ 30.1 3.26 0.96 11.87
        MID    AA  6.2 4.05 1.20 10.80
  2026  MID    AA 34.0 1.85 0.91 11.38

去年小聯盟第一個球季從1A出發

並且跳了兩級來到2A

而今年表現更加進步

--
--
※ 發信站: 批踢踢實業坊(ptt.cc), 來自: 220.130.105.184 (臺灣)
※ 作者: samyou 2026-05-08 10:34:24
※ 文章代碼(AID): #1f_Kkqpt (Baseball)
※ 文章網址: https://www.ptt.cc/bbs/Baseball/M.1778207668.A.CF7.html
Yohan961205: 太強了1F 05/08 10:34
w1g0824: 好強2F 05/08 10:34
orange487: 超級強...3F 05/08 10:35
iPolo3: 明年大聯盟4F 05/08 10:35
ejirum: 7775F 05/08 10:35
MoWilliams: 該升了吧,不過被嗨了6F 05/08 10:35
yankees733: K爆2A7F 05/08 10:35
Augustus5: 完全屠殺8F 05/08 10:35
guns: 可以了吧9F 05/08 10:36
TRosenthal: 超級強10F 05/08 10:36
A88551212: 超強 好開心11F 05/08 10:36
jclee0000: 加油 健康12F 05/08 10:36
keycho5566: 7777777777713F 05/08 10:36
AlLeN0121: 該上去找莊陳了吧14F 05/08 10:36
hpfan: 太強啦15F 05/08 10:36
wong87227: 繼續這表現大概率明年或今年底2A跳級大聯盟吧16F 05/08 10:36
ANCEE: 上去找莊陳吧17F 05/08 10:36
peanutman: 超強18F 05/08 10:36
peteru4: 可以去3A看看了吧19F 05/08 10:36
timchen0111: 太誇張了20F 05/08 10:37
Eyrie: 2A單純虐菜局了21F 05/08 10:37
curry0402: 10k 真強22F 05/08 10:37
chiki428: 強到不行23F 05/08 10:37
GakkiMyWife: 有些球隊可能就直接跳大聯盟了 不過慢慢養比較好24F 05/08 10:37
onepiece1919: 怎麼突然進化了25F 05/08 10:37
supreme0731: 天份頂天 有夠強 成長超快26F 05/08 10:37
a10304025: https://i.mopix.cc/lsXeTx.jpg27F 05/08 10:37
a10304025: 2A虐菜中 還不算這場
[圖]
kasim65: WBC讓他吃經驗大禮包 提前對上3A和MLB打者吧29F 05/08 10:37
peter86511: 虐菜30F 05/08 10:38
yipogo: 招魂大隊不喜歡這篇31F 05/08 10:38
CMPunk: 適應完了?太猛了吧 該升3A了吧32F 05/08 10:38
supreme0731: 那來突然進化 一直都很強33F 05/08 10:38
aifighter: 天份真的是很猛...34F 05/08 10:38
luna2000sea: 這個不用喊讓他升 球團都等不及叫他上去了35F 05/08 10:38
Arodz: 今年搞不好就有機會上MLB了 加油‼36F 05/08 10:38
ricky9696: 連2A都在虐菜中37F 05/08 10:38
ANCEE: 有機會台灣最年輕上大聯盟38F 05/08 10:38
YMSolJack: 讓他升39F 05/08 10:38
LaMaAldridge: 先去3A試試吧 直接讓他MLB怕像王維中那樣40F 05/08 10:39
GakkiMyWife: 太早Rush也不好 慢慢養吧41F 05/08 10:39
joshtrace: 世界最強投手42F 05/08 10:39
hsw0502: 繼續屠殺個幾場就差不多可以升了43F 05/08 10:39
andre9: 跟賣麵一樣 直升大聯盟44F 05/08 10:39
ghostdeityj: 今年就可以直上大聯盟了45F 05/08 10:39
ghostdeityj: 2A對他來說已經沒太大意義了
keith0939: 2A關不住了47F 05/08 10:40
asfg465223: 這人感覺會比鄧愷威強48F 05/08 10:40
helacell: 讚讚!!49F 05/08 10:40
Rhiner18: 真的好強50F 05/08 10:41
CactusFlower: 跳級生.....51F 05/08 10:41
redsucksndie: 3A程度了啦52F 05/08 10:41
jumilin927: 準備上大聯盟啦53F 05/08 10:41
super009: 終於要出現老王接班人了嗎54F 05/08 10:41
qq109523: 厲害,繼續加油55F 05/08 10:42
gene51604: 下半季直升了吧56F 05/08 10:42
rbki3: 這樣下去 今年就要拉上MLB了57F 05/08 10:42
kilmmy149: 感覺可以直接上去開箱了58F 05/08 10:42
woody31317: 好期待在大聯盟看到他啊59F 05/08 10:43
JustinIdiot: 說進化的有點雲了 去年投完就已經是百大邊緣等級了60F 05/08 10:43
arrc21: 去年1A總教練叫他拼一下隔年就上MLB 現在看感覺不是客套61F 05/08 10:43
Znps: 超級強62F 05/08 10:44
reader2714: 不是突然強 之前教練評隔年上MLB了63F 05/08 10:44
glacierl: 希望他會是健康版本的小小郭64F 05/08 10:44
pig721: 這種超齡表現 真的是天才啊… 好久沒看到這種台灣人了65F 05/08 10:44
s916813: 真的好猛突然的覺得今年拉上去讓他投個一場也是有可能66F 05/08 10:44
km1201: 9月上去觀光?67F 05/08 10:45
cliff777: 是能投先發的小小郭嗎68F 05/08 10:45
luna2000sea: 1A總仔看過很多人吧 感覺就知道你不屬於我們這邊的69F 05/08 10:45
Zency3d2y: 超強...真的可以拉上去開箱了70F 05/08 10:45
neddchiu: 直衝MLB71F 05/08 10:45
Y225: 招魂大隊看到他進百大是不是很氣?72F 05/08 10:46
aquamorion: 有機會直上大聯盟了73F 05/08 10:46
PIN0602: 不奢求大聯盟 但至少上3A磨練吧 他在2A很難練到什麼了74F 05/08 10:47
JWalk77: 超猛75F 05/08 10:47
tomlee1130: 太神啦76F 05/08 10:47
Johseagull: 虐殺…這成績…如果3A也複製…今年真的有機會…77F 05/08 10:47
james4515: 這隻我爪要了 但要不到78F 05/08 10:47
stilu: 真的可怕,才20歲.....79F 05/08 10:47
megalodon35: 快升了吧80F 05/08 10:47
u087111: 讓他升81F 05/08 10:47
annabelle83: 超強!82F 05/08 10:47
leo79415: 我也覺得先上3A再說 根本不急83F 05/08 10:47
loveinmars: 好球率72% 10K 當電動在打84F 05/08 10:48
vavamk: 可能年底上去觀光一下,明年3A出發?85F 05/08 10:48
Diaw0803: 百大86F 05/08 10:48
jim307prin: 這隻爪要不到87F 05/08 10:49
zandy8551: 6局10K不到80球...太猛了88F 05/08 10:50
a76597659: 搞不好年底就先MLB開箱了 好扯89F 05/08 10:50
crayon1988: 這天份真的好恐怖90F 05/08 10:50
YDSK: 才去第二年就有這成績,真的厲害91F 05/08 10:50
Johseagull: 現在頂級投手真的不會被壓在小聯盟太久 直接上大聯盟92F 05/08 10:50
Johseagull: 是有可能的
coolschumi: 真的可以升了94F 05/08 10:50
geminibear: 真的強!有機會擴編上去玩一下95F 05/08 10:51
geminibear: 他升的速度真的很猛 讓人期待
achibluu: 生生生97F 05/08 10:52
pptsodog: 上去觀光沒問題了98F 05/08 10:52
henryeech: 均速不知道能不能再拉上來99F 05/08 10:52
rbki3: 去3A丟是一定的   只是現況是 很有可能季末就被拉去MLB了100F 05/08 10:53
hcl00: 下一位有機會上去的了101F 05/08 10:53
king9122: 讓他升102F 05/08 10:53
DPP48: 強,太強了,還不生嗎103F 05/08 10:53
sana113821: 峮臨天下 準備讓他升104F 05/08 10:54
YDSK: 左投均速有個93、94,搭配他滑球還有練起來的變速,真的有105F 05/08 10:54
YDSK: 機會
laangels27: 他上去八成是換掉莊陳吧 莊陳現在就是3A最邊邊的格子107F 05/08 10:54
MillerReggie: 爪可以等25年後簽來當投手教練108F 05/08 10:54
adwn: 屌虐2A,這層級已經練不到什麼了109F 05/08 10:55
volcom: 2A複製1A數據110F 05/08 10:55
tomwdc: 直上大聯盟111F 05/08 10:55
ShW678: 11.38也太爛了吧 什麼是K9112F 05/08 10:55
abc1234586: 讓他升113F 05/08 10:55
Loveis5566: 直升MLB吧 還在AAA114F 05/08 10:56
chienen: 太猛啦!!!!115F 05/08 10:56
FRANKYCHang: 太強了吧116F 05/08 10:56
jumilin927: 保證會上去的117F 05/08 10:56
WasJohnWall: 這個完成度好誇張喔 果然是台灣10年出一個的等級118F 05/08 10:56
smallweek: 還是先去3A投看看,玉米在2A也是很強但到3A就卡關了119F 05/08 10:56
Loveis5566: 一階階升 是一般人的玩法120F 05/08 10:56
jumilin927: 年輕人在2A太強的都會被帶上去試121F 05/08 10:56
combro40: 今天球速如何啊122F 05/08 10:57
Loveis5566: 會覺得MLB讓人一階階練等也太老人想法123F 05/08 10:57
orange487: 難怪被評為近代天賦最高的左投,拜託一定要保持健康啊124F 05/08 10:57
Kevin0608: 玉米在2A也沒有這麼強125F 05/08 10:58
supreme0731: 他天份頂的 當初1A初登板總a就覺得這小子不簡單了126F 05/08 10:58
supreme0731: 問他幾年要上大聯盟 覺得他實力應該很快就上去
Jerry0530s: 神啊128F 05/08 10:58
vini770803: 好強啊129F 05/08 10:58
hy654: 玉米2a哪有很強 他2a就成績沒這麼好了好嗎130F 05/08 10:58
Loveis5566: 有天份就是不會讓你浪費時間直接上131F 05/08 10:58
supreme0731: 當初1A初登板就超驚艷了132F 05/08 10:58
charmingpink: 我也感覺會直接被拉上去開箱133F 05/08 10:58
smallweek: 不過林的天賦評價本來就比玉米好134F 05/08 10:58
orange487: 而且維恩個性蠻討喜的,活潑搞笑但又有點靦腆,場上投135F 05/08 10:59
orange487: 球又不失霸氣
Kevin0608: 如果在其他大聯盟缺SP的球隊 搞不好直接被拉上去137F 05/08 10:59
ooooooo: 炸138F 05/08 10:59
KEDEN: 希望今年能上去mlb觀光啊139F 05/08 10:59
blitzkrieg: 生吧生吧140F 05/08 10:59
Aldousphyx: 明年高機率封館 還是今年上去觀光一下好141F 05/08 11:00
ferrarihsieh: 屠殺2A142F 05/08 11:00
paracase: 今年才開季才1個多月就投了34局,去年整年還投不到90局143F 05/08 11:00
lsj049: 今年感覺有機會摸到MLB喔144F 05/08 11:00
smallweek: 先去投3A投幾場看看啊!真的還是強當然今年就拉上MLB也145F 05/08 11:00
smallweek: 是可以的
rbki3: 另一篇提到 今天MAX只有94mph耶   然後他還是10K147F 05/08 11:01
Tonyx599026: 強啊維恩 讚讚148F 05/08 11:01
gn1698: 繼續屠殺149F 05/08 11:01
hans7192: 職業二年級生上AA ERA2以下 台灣別說10年有旅外辦到過嗎150F 05/08 11:01
rbki3: 之後身體素質再上去 球速很可能是97在跳的  無限想像空間阿151F 05/08 11:01
KEDEN: 高層一定會想先讓他上去投看看 如果真的不行再下3a 因為最152F 05/08 11:02
KEDEN: 終你還是要上去投mlb 不如試試看能耐到哪裡
johnwu: 這差不多要生了吧154F 05/08 11:02
same60710: 強155F 05/08 11:02
chentran: 讓他升156F 05/08 11:03
evil4422: 虐爛 超強 上去吧157F 05/08 11:03
erodora: 層級愈高投愈好是怎麼回事158F 05/08 11:03
pounil: 控球很好159F 05/08 11:03
zego41: 再一年就生得上去了吧160F 05/08 11:03
James921124: 猛 繼續加油 看季中能不能就上3A161F 05/08 11:04
crayon1988: 因為這是真正評估前三號先發的天賦…162F 05/08 11:04
huangjyuan: 早沒擴編了163F 05/08 11:04
hans7192: 今年讓他進26人是不是就會開始算控制權?164F 05/08 11:04
tsukiruru: 太扯165F 05/08 11:04
waslisa1211: 強166F 05/08 11:04
pikachu123: 大埔師父也是好嗎 現在雖然很慘別忘了他167F 05/08 11:05
chiayoung: 希望保持健康,加油168F 05/08 11:05
lnonai: 好久沒看到這麼猛的169F 05/08 11:05
ThomasWei919: 好.....好強......170F 05/08 11:06
ppacers: 未來幾年應該是台灣最強投手171F 05/08 11:06
energy09556: 讓他升172F 05/08 11:06
chiayoung: 而且覺得他的身體素質還有再往上提升不少的可能,潛力173F 05/08 11:07
chiayoung: 還很大
ohmyya: 反向招魂175F 05/08 11:07
ILLwill: 2A投成這樣,是有可能直接call up176F 05/08 11:07
aobocodo2004: 讚讚!177F 05/08 11:07
arthur8787: 好扯好扯 直球stuff 真的香178F 05/08 11:07
ntultamwc: 超強 有沒有機會上去觀光一下179F 05/08 11:07
SHOTN17: 這就是台灣蝸牛嗎……180F 05/08 11:07
Kowdan: 超強181F 05/08 11:07
glacierl: 層級高反而成績好有可能是他在1A時教練給的功課是養成182F 05/08 11:08
hans7192: 林昱珉2A成績沒他好啊....183F 05/08 11:08
sanders: 今年保底3A 明年開季可能就常駐先發輪值184F 05/08 11:08
Kelsier27: 好棒喔185F 05/08 11:08
passbyks: 讓他升!!!186F 05/08 11:09
damyu: 強強187F 05/08 11:09
sesd: 現在CALL上去 能掌握FA年資就縮短了 運動家應該不會188F 05/08 11:09
hipnos: 讓他升..189F 05/08 11:10
sesd: 這種百大級的 能多拗一年FA算一年190F 05/08 11:10
heroboy: 這位才是不用被招魂的 感覺很快就會上去191F 05/08 11:10
xrayxrayxray: 強192F 05/08 11:11
ppacers: 運動家今年成績不差,會不會明星賽過後就升193F 05/08 11:11
lovecut: 自己學的變速球很銷魂194F 05/08 11:11
michellenie: 該升了吧195F 05/08 11:11
GakkiMyWife: 不差反而不會升吧 沒空間讓他練等196F 05/08 11:12
heroboy: 才20歲 球速應該還有機會上升197F 05/08 11:12
HansonBobo: 強198F 05/08 11:12
jasperjr7: 戰績不差應該更不會升了,有機會隔年站穩輪值不會Rush199F 05/08 11:13
hcastray: 加油吧200F 05/08 11:13
sanders: 不知他現在球速是否穩定95賣?201F 05/08 11:13
shengping: 戰績放推的才有空間季末拉上去開箱202F 05/08 11:14
rickas0507: 讓他升!203F 05/08 11:14
crayon1988: 其實太強的會被壓年資204F 05/08 11:14
NBAsucks: 讓他升 = =205F 05/08 11:15
lowl99: 最快明年就會升,綠帽SP滿缺的206F 05/08 11:15
marketingptt: 好奇 林 這個聯盟算投手聯盟嗎?207F 05/08 11:16
MyTHz: 超猛!繼續保持!加油!208F 05/08 11:16
Akira1124: 今年3A有先發被拉上去後,應該就會去3A了209F 05/08 11:16
zxcya0528: 20歲屠殺2A210F 05/08 11:17
Windk610i: 台灣至寶211F 05/08 11:17
dw1012: 綠帽很少直接跳過3A的 就慢慢來212F 05/08 11:17
dw1012: 維恩不在40人 要升上去勢必是提前拉
dw1012: 雖然綠帽大聯盟輪值一堆打工仔 但他們看起來不急
dw1012: 會打算等農場這幾個投手成熟再拉吧 反正主力大多綁約
stilu: 林在德州聯盟,算是偏打者聯盟216F 05/08 11:19
Vincent10247: 太強了吧217F 05/08 11:19
reader2714: 好像偏打者聯盟218F 05/08 11:20
samw71156: 明年12強可能沒位子了219F 05/08 11:20
TUANKKKK: 結果比玉米早上大聯盟220F 05/08 11:20
s916813: 那玉米跟他比不公平啦,兩個人機體就差一截了221F 05/08 11:22
LeOniD0728: 玉米是地板高222F 05/08 11:22
s916813: 維恩要比的是小小郭這級的223F 05/08 11:23
xyzouo: 超強224F 05/08 11:23
bigbeat: 可以去3a了225F 05/08 11:24
wenfei: 強226F 05/08 11:24
ahm001aaa: 那些招魂狗跑去哪了? 話說就算回來他們大概也不會進場227F 05/08 11:26
ahm001aaa: 看球
MK47: 太屌了吧 他不是才去美國沒多久而已嗎229F 05/08 11:26
samuelyen: 運動家今年有機會拚戰績耶,應該不會急著拉上MLB吧230F 05/08 11:26
chrisplash: 林維恩昨天有入選BA的百大新秀了,第93名,台灣第四人231F 05/08 11:27
chrisplash: 入選而已
jocabyu: 這隻才去美國第二年而已欸…有夠可怕,一路碾過去233F 05/08 11:27
steany: 直接上大聯盟了吧234F 05/08 11:28
lucky360: 感覺看到當年的郭泓志235F 05/08 11:29
Seikan: 這種不用太早回來 先讓他升吧236F 05/08 11:29
dummy5566: 投一休四,前一場7局無失分,今天又6局10K,真屠殺無誤237F 05/08 11:30
rockslame: 這個聯盟ERA+是多少 有偏投手嗎? 符合2A賽揚獎238F 05/08 11:30
tinghsi: 感覺可以再練壯點 讓球速再快一些239F 05/08 11:30
cityman9999: 會再看幾場吧240F 05/08 11:31
erodora: 招魂大隊也是會看人招魂好嗎,他目前不在我的招魂名單241F 05/08 11:31
vin312789: 太強了吧 百大新秀242F 05/08 11:31
alex813: 太強了 會不會超車玉米呢243F 05/08 11:32
welly520: 這樣才93名喔?前50的是什麼怪物啊?244F 05/08 11:32
rotusea: 讓他升245F 05/08 11:33
qazxc312: 屠殺2A可以直升大聯盟了246F 05/08 11:33
HotShotBB: 這k9太舒服了247F 05/08 11:33
Barbarian123: 這隻官方認證模板蝸牛 千萬不要回來248F 05/08 11:33
Tr3vyy: 讓他升 讓他升249F 05/08 11:33
leon49930111: 可惜Josh先嗨一步250F 05/08 11:34
KBBEN21: 讓他升!251F 05/08 11:34
CJ2048: 峮峮姊姊~~~252F 05/08 11:34
lmf770410: 猛253F 05/08 11:35
FQ: 保持健康,一路衝上去吧254F 05/08 11:35
chrisplash: 三針能力強就算了,保送還不多,被打擊率低,壓制力超255F 05/08 11:35
chrisplash: 好,而且他到美國後身材長起來球速越丟越快
LEEWY: 快上去啦別虐菜了257F 05/08 11:36
McRay: 哇...258F 05/08 11:36
aro3810: 升3A應該可以吧259F 05/08 11:36
ui: 讚260F 05/08 11:36
Allen0906: 好強 加油261F 05/08 11:37
ZhengMark: 上3A試試了吧262F 05/08 11:37
sweetsmoke: 上去了263F 05/08 11:38
eon4: 臺灣旅美繼郭王陳之後最強投手應該沒問題了 看能到哪裡了264F 05/08 11:38
allenchtw: 超級猛...適應的好快265F 05/08 11:38
fp737: 真大物  難怪球探會哭266F 05/08 11:38
airflow: 恩仔267F 05/08 11:38
Tabrisyang: 2A不夠打了268F 05/08 11:38
zego41: 明年3A出發 表現好應該就機會升上去269F 05/08 11:38
aro3810: 練壯一點,球速穩定95+,就很有優勢了!!270F 05/08 11:39
whiwhiwhi: 真的有夠猛271F 05/08 11:39
chunfu: 身高更高 更健康 能投先發但極速慢一點點的小小郭272F 05/08 11:40
KaedeFuyou: 這就是大物273F 05/08 11:40
mp5good: 個人覺得可以多練一個速球系的玩共軌274F 05/08 11:41
vaughn: 3A如果有人拉上去,這隻可以上3A試試275F 05/08 11:42
theworld666: 明星賽後能上 3A 就很不錯了 明年拼大聯盟!276F 05/08 11:42
beauman002: 球速沒小小郭快 但直球跟陳偉殷一樣會上竄的那種277F 05/08 11:42
akimu: 手臂強度還需要練一下啦278F 05/08 11:44
sg1987: 2A屠殺的話是有機會直接抓上去大聯盟的279F 05/08 11:44
s29961091: 有夠猛欸280F 05/08 11:44
kenken0902: 百大281F 05/08 11:44
thno: 讓他升282F 05/08 11:45
NinjaRR: 德州聯盟偏打者聯盟283F 05/08 11:45
a12300: 看來今年要上3A了  2A適應得差不多284F 05/08 11:45
McRay: 之前他的小聯盟問他何時想上MLB還真的不是開玩笑的285F 05/08 11:45
mookiesfan: https://i.ibb.co/pBYjvJ3m/1.jpg 沒事啊有人還是286F 05/08 11:46
mookiesfan: 不服氣
[圖]
McRay: 教練288F 05/08 11:46
jumperman: 應該會把他放到PCL去測看看..快去賭城吧~289F 05/08 11:46
ssj1988: 每個層級的K9好猛!290F 05/08 11:47
Roxyy: 林比較像殷仔吧 速球不到頂快 但揮空率高291F 05/08 11:47
TweLVe1228: 可以上3A了吧292F 05/08 11:47
a894392000: 鬼293F 05/08 11:47
mookiesfan: 不知道林維恩在中職會養成怎樣294F 05/08 11:48
jerrychien06: 升3A才準 3A跟2A不是同個等級的295F 05/08 11:48
chrisplash: 林從高中極速147到現在可以穩定92-94,WBC對韓國最快9296F 05/08 11:49
chrisplash: 4.8,成長的非常快
penta: 給他升298F 05/08 11:49
MiCross: 讚299F 05/08 11:50
Marsss77: 太神辣300F 05/08 11:52
j3024133: 球速不是絕對啦,科蕭、今永昇太、柳賢振都不怎麼快,301F 05/08 11:52
j3024133: 還是很猛
webberfun: 好猛303F 05/08 11:52
whiwhiwhi: 而且他才20而已... 還有很大的成長空間304F 05/08 11:52
j3024133: 科蕭我記得好幾年的極速才93、94305F 05/08 11:53
rickyjessy: 超強306F 05/08 11:54
WINDHEAD: 林維恩是左投欸 這個球速的成長曲線完全夠用了307F 05/08 11:54
iqzvfact: 百大又有成績一定很快就開箱的308F 05/08 11:55
bvg2536452: 今年不知道有沒有機會上去觀光309F 05/08 11:57
amos30627: 這種高天賦才該拼旅外直接快速上大聯盟 破百萬簽約金跟310F 05/08 11:58
amos30627: 那種50萬附近的還是有差
whiwhiwhi: 科蕭巔峰時直球均速大概93~95左右312F 05/08 11:58
alisa99: 太猛惹313F 05/08 11:58
kobe75525: 這比林昱珉還強了吧314F 05/08 11:59
ramirez: 猛!!!!315F 05/08 12:00
signm: 我一直說他是旅美最強的316F 05/08 12:02
jasop: 讓他升317F 05/08 12:02
glayliou: 讓他升318F 05/08 12:03
MOBOI: 2A小廟已經容不下這大佛了319F 05/08 12:04
Feeng: 這季有機會到MLB觀光了320F 05/08 12:04
linweida: 太強了321F 05/08 12:04
vltw5v: 升了吧 這層級在虐菜了322F 05/08 12:07
vgil: 去3A練功吧  這虐菜等級了323F 05/08 12:08
funcky0116: 我覺得要趁狀況好直接上去說不定直接站穩324F 05/08 12:08
shlee: 感覺不用季末 季中就先拉去3A試試看了325F 05/08 12:08
hijodedios36: 2a已經壓不住他了326F 05/08 12:08
ericf129: 猛猛猛327F 05/08 12:09
sdaniel1982: 今年機體更壯,整個宰制2A了328F 05/08 12:10
hijodedios36: 我覺得他球速還能再長 身體還能再更壯329F 05/08 12:10
Lawser1934: 而且沒保送 超強330F 05/08 12:10
chenchloe: 太猛了吧!331F 05/08 12:10
proprome: 強爆了332F 05/08 12:10
wmaledizione: 升升升!333F 05/08 12:11
AhCheng: 讚讚讚334F 05/08 12:12
guexx3: 超猛335F 05/08 12:12
seimo: 我好像是少數國三就認為他有一點機會。高一鋁棒組336F 05/08 12:12
seimo: 看完就等平鎮不要弄疼他就好XD
seimo: 不用擔心明年還有一批學弟左投會去小聯盟跟隨他的
seimo: 腳步
benboy: 今年3A明年大聯盟!!340F 05/08 12:14
seimo: 我的標準是至少四個旅外(全部左投)341F 05/08 12:14
moto000: 強 但要先把身材養壯342F 05/08 12:14
icosahedron: 炸魚啦343F 05/08 12:14
usuar: 慢慢來啦不要急!保持健康是重點344F 05/08 12:16
jumperman: 前兩場才開始把球數拉高到可以吃完先發投手的基本局數345F 05/08 12:22
jurickson: 可以升了吧346F 05/08 12:24
lion3210: 招魂幡折斷了啦347F 05/08 12:24
fp737: 會不會6月底就先上去了348F 05/08 12:26
EMH: 如果沒有特別要修的,這成績再複製幾場,有缺就上去了,沒缺349F 05/08 12:27
EMH: 才放3A吧
abcnelson654: 還不升喔?351F 05/08 12:28
culturesky: 這完全是炸魚352F 05/08 12:28
Artist: 他的天賦應該台灣歷史前三了吧353F 05/08 12:28
oscar456: 這場捕手也接到蠻好看的354F 05/08 12:31
Pekoyo: 10k355F 05/08 12:31
KnightVald: 讓他升!讓他升!356F 05/08 12:33
powergreen: 強357F 05/08 12:34
ro123eo: 可以上了吧358F 05/08 12:35
paxetin: 強359F 05/08 12:35
malikpanda: 屠殺2A360F 05/08 12:37
g0428168: 真的是超強...361F 05/08 12:37
Kappa: K爛362F 05/08 12:38
abcde010710: 讓他升363F 05/08 12:40
Silentrain22: 讓他升364F 05/08 12:40
nacl0497: 靠北屠殺AA,好屌365F 05/08 12:40
zxc62198644: 強366F 05/08 12:40
travis915117: MLB Pipeline的IG也發林維恩了367F 05/08 12:40
s880098: 超車玉米了 玉米還在撞牆368F 05/08 12:41
lowl99: 玉米已經不用想,也已經掉出蛇10大369F 05/08 12:42
testlab: 讓他升!370F 05/08 12:43
a1230215: 讓他升371F 05/08 12:48
O10lOl01O: 林維恩 莊陳好像都可以關注喔372F 05/08 12:48
a51062004: 讓他升讓他升373F 05/08 12:49
popoyellow: 想聽seimo大的學弟分析(敲碗)374F 05/08 12:49
glenliu: 3A啟動375F 05/08 12:50
beefw: 太強了376F 05/08 12:51
mantra: 超強377F 05/08 12:52
Lukaku: 投一修四378F 05/08 12:53
FDM: 很看好他。除了實力外,還有那種天不怕地不怕的個性379F 05/08 12:54
liarjack5566: 該升了380F 05/08 12:54
yuenwwjd: 藍迪維恩  升吧~~~~~~~~~~~~~~~~~~~~~~~~~~~~~~~~~~~~381F 05/08 13:00
Thebulun: 是說這麼強竟然還沒有百大 大聯盟真可怕382F 05/08 13:05
a25270672: 強啊!大聯盟不遠了!383F 05/08 13:06
c140265: 今年上3A應該是穩的384F 05/08 13:09
its0130: 屠殺385F 05/08 13:10
shawn8887: 讓他升!386F 05/08 13:11
HWtseng: 他應該有機會直接2A跳級大聯盟387F 05/08 13:19
CaminoI: 讓他升!讓他升!388F 05/08 13:20
mmmmmmmmmmmm: 他是目前台灣最有希望站穩的,實力加個性389F 05/08 13:21
azure1990: 這成績有機會直升mlb喔390F 05/08 13:25
murmur38: 看影片直球大概93 希望能再高一點就好了391F 05/08 13:28
whiwhiwhi: 他有百大啊...? 推文是?392F 05/08 13:29
zhuazhua: 破關了393F 05/08 13:29
whiwhiwhi: 前幾天不就有文章了  百大93394F 05/08 13:29
whiwhiwhi: 球速目前也沒啥好擔心的 高中到現在才快2年也是有進步
whiwhiwhi: 不少
whiwhiwhi: 別忘記他才20歲 而且是左投
asfg465223: 陳偉殷速球球速也都90.91 還不是宰制大聯盟398F 05/08 13:33
cielilver: 又是左投真香399F 05/08 13:36
bobogo888: 去找莊陳400F 05/08 13:47
twtpcsilence: 太猛啦!!!!!401F 05/08 13:48
twtpcsilence: 陳偉殷球速最好只有90.91... 巔峰都嘛94.95
smallthree33: 不升不合理啦~~屠殺局403F 05/08 13:49
twofaceman: 777777404F 05/08 13:50
princessnake: 升!!!!405F 05/08 13:52
Syzygy00: 繼續維持 還年輕406F 05/08 13:55
beeboombee: 保持健康 增強身體素質比較重要407F 05/08 14:08
j3024133: 我是覺得沒那麼急,他的身體肌肉感覺還能長,再花個一408F 05/08 14:12
j3024133: 年慢慢堆疊肌群強度差不多
Alderamin: 他現在這種宰制力已經不用再過3A 就能直接拉了 但會考410F 05/08 14:23
Alderamin: 慮到體能 控制 跟陣容需不需要
tigerzz3: MLB見 100%412F 05/08 14:24
crayon1988: 陳偉殷巔峰均速是91-92沒錯啊 95那是Max  speed好嗎413F 05/08 14:24
rogergon: 身材更好,年紀更輕的左投,前途無量。414F 05/08 14:29
thomaspig: 太猛了!415F 05/08 14:29
ctes940008: 讓他升416F 05/08 14:48
hyc0725zz: 曾公目前最看好的就是維恩417F 05/08 14:51
f12688: 讚418F 05/08 15:11
iceteeth: 20歲而已419F 05/08 15:30
andy60214: 但現在莊陳40人,他沒有不是要先被擺進去40人才會升,420F 05/08 15:41
andy60214: 豈不是台灣內戰QQ

--
※ 看板: Baseball 文章推薦值: 0 目前人氣: 0 累積人氣: 4 
作者 samyou 的最新發文:
點此顯示更多發文記錄
分享網址: 複製 已複製
r)回覆 e)編輯 d)刪除 M)收藏 ^x)轉錄 同主題: =)首篇 [)上篇 ])下篇